[ hide orbit diagram ]
For accurate long-term ephemerides, please instead use our Horizons system.This orbit viewer was implemented using two-body methods, and hence should not be used for determining accurate long-term trajectories (over several years or decades) or planetary encounter circumstances.
Orbital Elements at Epoch 2459000.5 (2020-May-31.0) TDB
Reference: JPL 13 (heliocentric ecliptic J2000)
Element | Value | Uncertainty (1-sigma) | Units |
e | .1770325987570865 | 4.0238e-08 | |
a | 2.541679784772995 | 2.0529e-08 | au |
q | 2.091719607266279 | 9.6908e-08 | au |
i | 12.26989580267291 | 2.6466e-05 | deg |
node | 202.1777968567337 | 3.1841e-05 | deg |
peri | 103.3396635826594 | 0.00011416 | deg |
M | 25.72575343865991 | 0.00010401 | deg |
tp | 2458894.734194513664 (2020-Feb-15.23419451) | 0.00042723 | TDB |
period | 1480.061218260065 4.05 | 1.7931e-05 4.909e-08 | d yr |
n | .2432331822214827 | 2.9468e-09 | deg/d |
Q | 2.991639962279711 | 2.4163e-08 | au |
|
| | Orbit Determination Parameters
Additional Information
|
[ show covariance matrix ]
Physical Parameter Table
Parameter |
Symbol |
Value |
Units |
Sigma |
Reference |
Notes |
absolute magnitude |
H |
17.6 |
|
n/a |
MPO477049 |
|
|
437063 (2012 UP46) Discovered 2003-Apr-28 by Spacewatch at Kitt Peak |
Reference: | Last Updated: 2015-06-04 |
|
|